Estación Meteorológica Peña el Pijo (Robertgarden) [ 07/23/19 01:10:54 CEST ]

Fecha Hora Presion(HPa) Temp (°C) Humedad % Rocio (°C) Viento ( m/s) Direccion Lluvia 1Hora(mm) Lluvia 24H(mm) LLuvia Total(mm)
2019-Jun-07 01:09:28 1004.500 - - - - NNE     318.05
2019-Jun-07 02:09:30 1004.600 - - - - NNE     318.05
2019-Jun-07 03:09:26 1004.600 - - - - NNE     318.05
2019-Jun-07 04:09:37 1004.400 - - - - NNE     318.05
2019-Jun-07 05:09:34 1004.600 - - - - NNE     318.05
2019-Jun-07 06:09:28 1004.900 - - - - NNE     318.05
2019-Jun-07 07:09:18 1005.800 - - - - NNE     318.05
2019-Jun-07 08:09:31 1006.000 - - - - NNE     318.05
2019-Jun-07 09:09:28 1006.400 - - - - NNE     318.05
2019-Jun-07 10:10:00 1006.800 - - - - NNE     318.05
2019-Jun-07 11:09:25 1007.100 - - - - NNE     318.05
2019-Jun-07 12:08:58 1007.400 - - - - NNE     318.05
2019-Jun-07 13:09:39 1007.700 - - - - NNE     318.05
2019-Jun-07 14:08:46 1007.600 - - - - NNE     318.05
2019-Jun-07 15:09:13 1007.300 - - - - NNE     318.05
2019-Jun-07 16:08:51 1007.400 - - - - NNE     318.05
2019-Jun-07 17:08:50 1007.400 - - - - NNE     318.05
2019-Jun-07 18:09:26 1007.600 - - - - NNE     318.05
2019-Jun-07 19:09:33 1007.900 - - - - NNE     318.05
2019-Jun-07 20:09:49 1008.500 - - - - NNE     318.05
2019-Jun-07 21:08:57 1009.200 - - - - NNE     318.05
2019-Jun-07 22:09:30 1010.000 - - - - NNE     318.05
2019-Jun-07 23:08:54 1011.200 - - - - NNE     318.05

Temperatura Máxima:    Temperatura Mínima:
Presión Máxima:1011.200 Hpa    Presión Mínima:1004.400 Hpa


Volver